Location: Ellerstadt
(49.4644°N, 8.2615°E)
Time: 20:38:25
(UTC+00:00)

Cosmos 2369 Rocket - Visible Passes

Search period start: 24 June 2021 00:00
Search period end: 04 July 2021 00:00
Orbit: 827 x 854 km, 71.0° (Epoch: 23 June)

Date Brightness Start Highest point End Pass type
(mag) Time Alt. Az. Time Alt. Az. Time Alt. Az.
24 Jun 4.2 01:15:29 10° W 01:16:56 11° W 01:18:23 10° WSW visible
24 Jun 3.8 21:29:14 10° NNW 21:34:07 27° NE 21:38:57 10° ESE visible
24 Jun 2.2 23:12:58 10° NNW 23:18:41 69° WSW 23:21:43 28° S visible
25 Jun 4.2 00:59:41 10° WNW 01:01:37 12° W 01:03:29 10° WSW visible
25 Jun 3.8 21:13:53 10° NNW 21:18:42 26° NE 21:23:28 10° E visible
25 Jun 2.2 22:57:35 10° NNW 23:03:18 73° WSW 23:06:25 28° SSE visible
26 Jun 4.2 00:44:01 10° WNW 00:46:18 12° W 00:48:11 11° WSW visible
26 Jun 3.9 20:58:33 10° NNW 21:03:17 26° NE 21:07:59 10° E visible
26 Jun 2.2 22:42:12 10° NNW 22:47:56 77° WSW 22:51:10 27° SSE visible
27 Jun 4.2 00:28:23 10° WNW 00:30:59 13° W 00:32:56 11° WSW visible
27 Jun 3.9 20:43:12 10° NNW 20:47:52 25° NE 20:52:29 10° E visible
27 Jun 2.2 22:26:49 10° NNW 22:32:34 80° WSW 22:35:56 26° SSE visible
28 Jun 4.1 00:12:48 10° WNW 00:15:39 14° W 00:17:42 12° WSW visible
28 Jun 3.9 20:27:51 10° NNW 20:32:27 24° NE 20:36:59 10° E visible
28 Jun 2.2 22:11:27 10° NNW 22:17:12 84° WSW 22:20:45 24° SSE visible
28 Jun 4.1 23:57:14 10° WNW 00:00:20 15° W 00:02:31 12° WSW visible
29 Jun 2.2 21:56:04 10° NNW 22:01:50 88° WSW 22:05:35 22° SSE visible
29 Jun 4.1 23:41:42 10° WNW 23:45:01 16° W 23:47:22 13° SW visible
30 Jun 2.2 21:40:42 10° NNW 21:46:27 89° NE 21:50:28 20° SSE visible
30 Jun 4.1 23:26:11 10° WNW 23:29:41 17° W 23:32:14 13° SW visible
01 Jul 2.2 21:25:19 10° NNW 21:31:05 85° ENE 21:35:22 18° SSE visible
01 Jul 4.1 23:10:41 10° WNW 23:14:21 18° W 23:17:09 13° SW visible
02 Jul 2.3 21:09:57 10° NNW 21:15:43 81° ENE 21:20:19 16° SSE visible
02 Jul 4.1 22:55:12 10° WNW 22:59:02 19° W 23:02:06 13° SW visible
03 Jul 2.3 20:54:35 10° NNW 21:00:20 78° ENE 21:05:17 14° SSE visible
03 Jul 4.0 22:39:43 10° NW 22:43:42 20° W 22:47:04 12° SW visible
